Location: ???????????
(54.5822°N, 39.1075°E)
Time: 14:29:50
(UTC+00:00)

Cosmos 1066 Rocket - Pass Details

Date: 19 May 2025
Orbit: 798 x 892 km, 81.2° (Epoch: 21 June)

Event Time Altitude Azimuth Distance (km) Brightness Sun altitude
Exits shadow 21:23:05 23° 191° (S) 1,726 5.2 -15.4°
Maximum altitude 21:26:43 88° 103° (ESE) 873 4.2 -15.4°
Drops below altitude 10° 21:32:31 10° 14° (NNE) 2,546 8.0 -15.4°
Sets 21:35:00 0° 15° (NNE) 3,499 9.1 -15.4°
